Tiempo cada hora Cavalcante

Hoy, 24 Enero, Domingo

Tiempo Temperatura Precipitaciones Viento Presión Humedad
00:00 +21°C° 0 mm 2 mps 690 mmHg 74%
01:00 +21°C° 0 mm 2 mps 689 mmHg 74%
02:00 +21°C° 0 mm 2 mps 689 mmHg 75%
03:00 +20°C° 0 mm 2 mps 689 mmHg 75%
04:00 +20°C° 0 mm 2 mps 689 mmHg 76%
05:00 +20°C° 0 mm 2 mps 689 mmHg 78%
06:00 +19°C° 0 mm 2 mps 689 mmHg 79%
07:00 +21°C° 0 mm 2 mps 690 mmHg 76%
08:00 +24°C° 0 mm 2 mps 690 mmHg 72%
09:00 +25°C° 0 mm 2 mps 691 mmHg 69%
10:00 +26°C° 0.1 mm 3 mps 691 mmHg 66%
11:00 +28°C° 0.1 mm 3 mps 691 mmHg 63%
12:00 +29°C° 0.1 mm 3 mps 691 mmHg 60%
13:00 +29°C° 0.2 mm 3 mps 691 mmHg 58%
14:00 +29°C° 0.2 mm 2 mps 690 mmHg 57%
15:00 +30°C° 0.2 mm 2 mps 689 mmHg 55%
16:00 +28°C° 0.3 mm 2 mps 689 mmHg 62%
17:00 +27°C° 0.3 mm 1 mps 689 mmHg 68%
18:00 +26°C° 0.3 mm 1 mps 688 mmHg 74%
19:00 +25°C° 0.4 mm 1 mps 688 mmHg 78%
20:00 +23°C° 0.4 mm 1 mps 688 mmHg 81%
21:00 +22°C° 0.4 mm 1 mps 689 mmHg 85%
22:00 +22°C° 0.3 mm 1 mps 689 mmHg 86%
23:00 +21°C° 0.3 mm 1 mps 689 mmHg 87%

Mañana, 25 Enero, Lunes

Tiempo Temperatura Precipitaciones Viento Presión Humedad
00:00 +21°C° 0.3 mm 1 mps 689 mmHg 88%
01:00 +21°C° 0.5 mm 1 mps 689 mmHg 88%
02:00 +21°C° 0.5 mm 1 mps 689 mmHg 87%
03:00 +21°C° 0.5 mm 1 mps 688 mmHg 87%
04:00 +21°C° 0 mm 1 mps 688 mmHg 87%
05:00 +21°C° 0 mm 1 mps 689 mmHg 88%
06:00 +21°C° 0 mm 1 mps 689 mmHg 88%
07:00 +22°C° 0 mm 1 mps 690 mmHg 83%
08:00 +24°C° 0 mm 2 mps 690 mmHg 79%
09:00 +25°C° 0 mm 2 mps 691 mmHg 74%
10:00 +26°C° 0.1 mm 2 mps 691 mmHg 71%
11:00 +28°C° 0.1 mm 2 mps 691 mmHg 67%
12:00 +29°C° 0.1 mm 3 mps 690 mmHg 63%
13:00 +29°C° 0.6 mm 2 mps 690 mmHg 63%
14:00 +29°C° 0.6 mm 2 mps 689 mmHg 62%
15:00 +30°C° 0.6 mm 2 mps 689 mmHg 61%
16:00 +28°C° 1.8 mm 2 mps 689 mmHg 68%
17:00 +27°C° 1.8 mm 1 mps 688 mmHg 75%
18:00 +26°C° 1.8 mm 1 mps 688 mmHg 81%
19:00 +25°C° 1.7 mm 1 mps 688 mmHg 83%
20:00 +24°C° 1.7 mm 1 mps 689 mmHg 85%
21:00 +23°C° 1.7 mm 1 mps 689 mmHg 87%
22:00 +23°C° 0.1 mm 1 mps 689 mmHg 87%
23:00 +23°C° 0.1 mm 1 mps 689 mmHg 86%

Pasado mañana, 26 Enero, Martes

Tiempo Temperatura Precipitaciones Viento Presión Humedad
00:00 +22°C° 0.1 mm 1 mps 689 mmHg 86%
01:00 +23°C° 0 mm 1 mps 689 mmHg 86%
02:00 +23°C° 0 mm 1 mps 689 mmHg 85%
03:00 +23°C° 0 mm 1 mps 688 mmHg 85%
04:00 +22°C° 0 mm 1 mps 689 mmHg 85%
05:00 +22°C° 0 mm 1 mps 689 mmHg 86%
06:00 +22°C° 0 mm 1 mps 689 mmHg 86%
07:00 +23°C° 0 mm 1 mps 690 mmHg 82%
08:00 +25°C° 0 mm 1 mps 691 mmHg 77%
09:00 +26°C° 0 mm 2 mps 691 mmHg 73%
10:00 +27°C° 0.1 mm 2 mps 691 mmHg 70%
11:00 +28°C° 0.1 mm 2 mps 691 mmHg 67%
12:00 +29°C° 0.1 mm 3 mps 691 mmHg 64%
13:00 +29°C° 0.7 mm 3 mps 690 mmHg 64%
14:00 +29°C° 0.7 mm 2 mps 690 mmHg 65%
15:00 +29°C° 0.7 mm 2 mps 689 mmHg 65%
16:00 +28°C° 0.7 mm 2 mps 689 mmHg 70%
17:00 +27°C° 0.7 mm 2 mps 688 mmHg 74%
18:00 +27°C° 0.7 mm 1 mps 688 mmHg 78%
19:00 +26°C° 0.1 mm 1 mps 688 mmHg 80%
20:00 +25°C° 0.1 mm 1 mps 689 mmHg 81%
21:00 +23°C° 0.1 mm 1 mps 689 mmHg 82%
22:00 +23°C° 0.3 mm 1 mps 689 mmHg 83%
23:00 +23°C° 0.3 mm 1 mps 689 mmHg 83%

27 Enero, Miércoles

Tiempo Temperatura Precipitaciones Viento Presión Humedad
00:00 +23°C° 0.3 mm 1 mps 689 mmHg 84%
01:00 +23°C° 0.3 mm 1 mps 689 mmHg 85%
02:00 +22°C° 0.3 mm 1 mps 689 mmHg 87%
03:00 +22°C° 0.3 mm 1 mps 688 mmHg 89%
04:00 +22°C° 0 mm 1 mps 688 mmHg 89%
05:00 +22°C° 0 mm 1 mps 689 mmHg 89%
06:00 +21°C° 0 mm 1 mps 689 mmHg 88%
07:00 +23°C° 0 mm 1 mps 690 mmHg 83%
08:00 +25°C° 0 mm 2 mps 690 mmHg 78%
09:00 +26°C° 0 mm 2 mps 691 mmHg 73%
10:00 +27°C° 0 mm 2 mps 691 mmHg 68%
11:00 +29°C° 0 mm 2 mps 691 mmHg 62%
12:00 +30°C° 0 mm 2 mps 691 mmHg 57%
13:00 +30°C° 0 mm 2 mps 690 mmHg 55%
14:00 +31°C° 0 mm 2 mps 690 mmHg 53%
15:00 +31°C° 0 mm 1 mps 689 mmHg 51%
16:00 +30°C° 0 mm 1 mps 689 mmHg 56%
17:00 +29°C° 0 mm 1 mps 688 mmHg 60%
18:00 +28°C° 0 mm 1 mps 688 mmHg 65%
19:00 +27°C° 0 mm 1 mps 688 mmHg 66%
20:00 +26°C° 0 mm 1 mps 688 mmHg 67%
21:00 +25°C° 0 mm 1 mps 688 mmHg 68%
22:00 +23°C° 0 mm 0 mps 689 mmHg 68%
23:00 +23°C° 0 mm 0 mps 689 mmHg 68%

28 Enero, Jueves

Tiempo Temperatura Precipitaciones Viento Presión Humedad
00:00 +22°C° 0 mm 0 mps 689 mmHg 67%
01:00 +22°C° 0 mm 0 mps 689 mmHg 68%
02:00 +22°C° 0 mm 0 mps 689 mmHg 69%
03:00 +22°C° 0 mm 0 mps 688 mmHg 70%
04:00 +22°C° 0 mm 0 mps 688 mmHg 72%
05:00 +21°C° 0 mm 0 mps 688 mmHg 74%
06:00 +21°C° 0 mm 0 mps 688 mmHg 76%
07:00 +24°C° 0 mm 1 mps 689 mmHg 72%
08:00 +26°C° 0 mm 1 mps 690 mmHg 68%
09:00 +28°C° 0 mm 1 mps 690 mmHg 63%
10:00 +29°C° 0 mm 1 mps 690 mmHg 59%
11:00 +30°C° 0 mm 2 mps 690 mmHg 55%
12:00 +31°C° 0 mm 2 mps 690 mmHg 51%
13:00 +31°C° 0 mm 1 mps 689 mmHg 51%
14:00 +31°C° 0 mm 1 mps 689 mmHg 52%
15:00 +31°C° 0 mm 1 mps 688 mmHg 52%

29 Enero, Viernes

Tiempo Temperatura Precipitaciones Viento Presión Humedad
Mostrar más